Regional Weather Roundup
Issued by NWS

Home | Current Version | Previous Version | Text Only | Print | Product List | Glossary On
Versions: 1 2 3 4 5 6 7 8 9 10 11 12 13 14 15 16 17 18 19 20 21 22 23 24 25 26 27 28 29 30 31 32 33 34 35 36 37 38 39 40 41 42 43 44 45 46 47 48 49 50
000
ASUS45 KABQ 010710
RWRNM
NEW MEXICO REGIONAL WEATHER ROUNDUP
NATIONAL WEATHER SERVICE ALBUQUERQUE NM
100 AM MDT SAT OCT 01 2016

NOTE: "FAIR" MEANS FEW OR NO CLOUDS BELOW 12,000 FEET AGL WITH NO
       SIGNIFICANT WEATHER OR OBSTRUCTIONS TO VISION.

      THIS PRODUCT IS RELEASED AS TWO VERSIONS.  ONE VERSION NEAR
      THE TOP OF THE HOUR CONTAINING PRELIMINARY DATA FROM ALBUQUERQUE
      AND OTHER STATIONS.  A FINAL VERSION WITH ADDITIONAL DATA IS
      ISSUED ABOUT 10 MINUTES AFTER THE HOUR.

NMZ501-503-504-510>518-010800-
NORTHWEST PLATEAU/NORTHCENTRAL MOUNTAINS

CITY           SKY/WX    TMP DP  RH WIND       PRES   REMARKS
FARMINGTON     FAIR      52  48  86 N5        30.21S
LOS ALAMOS     FAIR      58  34  39 CALM      30.30S
SANTA FE       FAIR      53  40  61 N10       30.24R
TAOS           FAIR      45  28  53 N5        30.30F
ANGEL FIRE     FAIR      37  32  81 CALM      30.38S

$$
NMZ402-403-502-505>509-010800-
WESTCENTRAL MOUNTAINS/SOUTHWEST MOUNTAINS

CITY           SKY/WX    TMP DP  RH WIND       PRES   REMARKS
GALLUP         FAIR      50  44  80 CALM      30.30R
SILVER CITY    FAIR      56  54  91 N5        30.24S

$$
NMZ407-409-411-412-010800-
SOUTHERN DESERTS

CITY           SKY/WX    TMP DP  RH WIND       PRES   REMARKS
DEMING         FAIR      63  57  81 CALM      30.19R
LAS CRUCES     FAIR      62  59  91 SW6       30.19S
HOLLOMAN AFB   CLOUDY    63  59  86 E6        30.15S
ALAMOGORDO     FAIR      61  57  88 CALM      30.17F
T OR C         FAIR      65  59  81 S6        30.19S

$$
NMZ519>523-010800-
CENTRAL VALLEYS/CENTRAL HIGHLANDS

CITY           SKY/WX    TMP DP  RH WIND       PRES   REMARKS
ALBUQUERQUE    FAIR      60  51  72 SE5       30.21S
DOUBLE EAGLE   MOCLDY    55  46  71 W5        30.24S
MORIARTY ARPT  FAIR      45  40  81 NE3       30.26R
CLINES CORNERS FAIR      52  45  77 W14       30.28S
BELEN          MOCLDY    64  58  81 CALM      30.20S
SOCORRO        FAIR      60  57  89 S5        30.19S

$$
NMZ524>526-539-540-010800-
SOUTHCENTRAL MOUNTAINS

CITY           SKY/WX    TMP DP  RH WIND       PRES   REMARKS
RUIDOSO        FAIR      54  45  71 W8        30.31S

$$
NMZ527>531-010800-
NORTHEAST HIGHLANDS/NORTHEAST PLAINS

CITY           SKY/WX    TMP DP  RH WIND       PRES   REMARKS
LAS VEGAS      FAIR      52  42  69 N10       30.25R
RATON          FAIR      56  45  66 N12       30.24S
CLAYTON        FAIR      58  50  75 W12       30.14F

$$
NMZ532>537-010800-
EASTCENTRAL PLAINS

CITY           SKY/WX    TMP DP  RH WIND       PRES   REMARKS
TUCUMCARI      FAIR      64  51  62 SW5       30.09F
CANNON AFB     FAIR      56  52  85 SE3       30.14S
CLOVIS AIRPORT FAIR      54  46  76 SE6       30.14F

$$
NMZ028-029-538-010800-
SOUTHEAST PLAINS

CITY           SKY/WX    TMP DP  RH WIND       PRES   REMARKS
ROSWELL        FAIR      56  52  86 SW5       30.10F
ARTESIA        FAIR      57  57 100 S7        30.11S
CARLSBAD       FAIR      61  58  90 S9        30.09F
HOBBS          FAIR      57  57 100 CALM      30.14F


$$



USA.gov is the U.S. government's official web portal to all federal, state and local government web resources and services.